{"data":{"norad_id":47770,"intl_designator":"2021-017BA","name":"STARLINK-2193","alt_names":[],"object_type":"PAYLOAD","status":"ACTIVE","operator":null,"country":"US","launch_date":"2021-03-04","launch_site_code":"AFETR","launch_vehicle":null,"mission":null,"orbit_class":"UNKNOWN","rcs_meters":null,"size_class":null,"mass_kg":null,"dimensions":null,"purposes":["comms"],"wikipedia_slug":null,"has_3d_model":false,"image_url":null,"decayed_at":null,"tle_current":{"epoch":"2026-09-20T00:38:15.335232Z","epoch_age_seconds":68015,"freshness":"FRESH","line1":"1 47770U 21017BA  26263.02656638  .00003184  00000+0  11424-3 0  9991","line2":"2 47770  53.1607  19.5113 0001452  55.6250 304.4889 15.31728916307643","mean_motion":15.31728916,"eccentricity":0.0001452,"inclination_deg":53.1607,"raan_deg":19.5113,"arg_perigee_deg":55.625,"mean_anomaly_deg":304.4889,"bstar":0.00011424,"rev_number":30764,"period_min":94.011413178806,"perigee_km":469.65935506626,"apogee_km":471.64824391443,"semimajor_km":6848.7907994903,"source":"CELESTRAK","updated_at":"2026-09-20T09:00:38.602774Z"}}}